Weather History for Campo, CA

Change the Weather History Date:

Wednesday, March 20, 2013

  Actual Average Record
Temperature  
Mean Temperature 56 °F 52 °F  
Max Temperature 74 °F 68 °F 92 °F (1997)
Min Temperature 38 °F 36 °F 24 °F (2000)
Degree Days  
Heating Degree Days 9 13  
Month to date heating degree days 255 276  
Since 1 July heating degree days 2399 2327  
Cooling Degree Days 0 0  
Month to date cooling degree days 0 0  
Year to date cooling degree days 0 0  
Growing Degree Days 8 (Base 50)    
Moisture  
Dew Point 40 °F    
Average Humidity 55    
Maximum Humidity 83    
Minimum Humidity 27    
Precipitation  
Precipitation 0.00 in 0.08 in 0.97 in (1991)
Month to date precipitation 1.43 1.97  
Year to date precipitation 4.44 8.18  
Since 1 July precipitation 8.91 13.76  
Snow  
Snow 0.00 in - - ()
Month to date snowfall 0.0  
Year to date snowfall 0.0  
Since 1 July snowfall 0.0  
Snow Depth 0.00 in    
Sea Level Pressure  
Sea Level Pressure 29.97 in    
Wind  
Wind Speed 6 mph (NW)    
Max Wind Speed 17 mph    
Max Gust Speed 25 mph    
T = Trace of Precipitation, MM = Missing Value Source: NWS Daily Summary

Daily Weather History Graph

Daily Weather History Graph

Search for Another Location

Airport:

Trip Planner

Search our weather history database for the weather conditions in past years. The results will help you decide how hot, cold, wet, or windy it might be!

Date:

Astronomy

Mar. 20, 2013 Rise Set
Actual Time 6:49 AM PDT 6:57 PM PDT
Civil Twilight 6:24 AM PDT 7:22 PM PDT
Nautical Twilight 5:56 AM PDT 7:50 PM PDT
Astronomical Twilight 5:27 AM PDT 8:19 PM PDT
Moon 12:54 PM PDT (3/20) 2:14 AM PDT (3/20)
Length of Visible Light 12h 57m
Length of Day
12h 08m
First Quarter, 60% of the Moon is Illuminated
Mar 20
First Quarter
Mar 27
Full
Apr 2
Last Quarter
Apr 10
New
Apr 18
First Quarter

Hourly Weather History & Observations

Time (PDT) Temp. Windchill Dew Point Humidity Pressure Visibility Wind Dir Wind Speed Gust Speed Precip Events Conditions
12:52 AM 42.1 °F 38.4 °F 37.9 °F 85% 30.04 in - ENE 5.8 mph - N/A   Unknown
1:52 AM 44.1 °F 41.5 °F 39.0 °F 82% 30.02 in - NE 4.6 mph - N/A   Unknown
2:52 AM 45.0 °F 42.6 °F 39.9 °F 82% 29.99 in - NNE 4.6 mph - N/A   Unknown
3:52 AM 45.0 °F 42.6 °F 39.0 °F 80% 29.98 in - ENE 4.6 mph - N/A   Unknown
4:52 AM 46.9 °F - 39.0 °F 74% 29.96 in - ENE 3.5 mph - N/A   Unknown
5:52 AM 44.1 °F 40.1 °F 37.9 °F 79% 29.99 in - ENE 6.9 mph - N/A   Unknown
6:52 AM 43.0 °F 40.3 °F 37.0 °F 80% 30.01 in - NE 4.6 mph - N/A   Unknown
7:52 AM 45.0 °F - 37.9 °F 76% 30.03 in - Calm Calm - N/A   Unknown
8:52 AM 55.0 °F - 41.0 °F 59% 30.01 in - Calm Calm - N/A   Unknown
9:52 AM 64.0 °F - 41.0 °F 43% 30.00 in - Calm Calm - N/A   Unknown
10:52 AM 69.1 °F - 41.0 °F 36% 29.99 in - SW 11.5 mph - N/A   Unknown
11:52 AM 73.0 °F - 41.0 °F 31% 29.98 in - West 10.4 mph - N/A   Unknown
12:52 PM 73.0 °F - 39.9 °F 30% 29.97 in - West 11.5 mph 18.4 mph N/A   Unknown
1:52 PM 73.9 °F - 37.0 °F 26% 29.95 in - WNW 13.8 mph 18.4 mph N/A   Unknown
2:52 PM 69.1 °F - 43.0 °F 39% 29.95 in - WNW 15.0 mph - N/A   Unknown
3:52 PM 69.1 °F - 43.0 °F 39% 29.94 in - West 11.5 mph 18.4 mph N/A   Unknown
4:52 PM 66.9 °F - 39.0 °F 36% 29.94 in - West 12.7 mph 17.3 mph N/A   Unknown
5:52 PM 64.9 °F - 36.0 °F 34% 29.94 in - West 13.8 mph - N/A   Unknown
6:52 PM 60.1 °F - 39.9 °F 47% 29.95 in - West 5.8 mph - N/A   Unknown
7:52 PM 55.9 °F - 43.0 °F 62% 29.96 in - WSW 6.9 mph - N/A   Unknown
8:52 PM 52.0 °F - 44.1 °F 74% 29.96 in - South 6.9 mph - N/A   Unknown
9:52 PM 48.9 °F - 42.1 °F 77% 29.95 in - Calm Calm - N/A   Unknown
10:52 PM 44.1 °F - 37.9 °F 79% 29.94 in - Calm Calm - N/A   Unknown
11:52 PM 43.0 °F 40.3 °F 37.0 °F 80% 29.92 in - ENE 4.6 mph - N/A   Unknown